Date String (YYYY-MM-DD hh:mm:ss) UTC,Instrument flags,Ambient pressure (hPa),Sample flow (lpm),Bypass flow (lpm),Sample temperature (°C),Ambient temperature (°C),ASC tube jacket temperature (°C),LED temperature (°C),Box temperature (°C),Sample RH (%),Span deviation,Mass concentration (μg/m³),Mass concentration (μg/m³),Mass concentration (μg/m³)
DateTimeUTC,F1_M11,P_M11,Q1_M11,Q2_M11,T1_M11,T2_M11,T3_M11,T4_M11,T5_M11,U1_M11,ZSPAN_M11,X2_M11,X0_M11,X1_M11
2023-05-06 11:00:00,,0825.4,4.99,0.00,27.2,25.2,00.0,35.6,28.5,10.2,0000.0,0003.61,0008.32,0001.97
2023-05-06 11:01:00,,0825.4,5.00,0.00,27.2,25.2,00.0,35.6,28.5,10.2,0000.0,0003.63,0008.34,0001.98
2023-05-06 11:02:00,,0825.4,5.00,0.00,27.2,25.2,00.0,35.6,28.5,10.2,0000.0,0003.60,0008.54,0001.98
2023-05-06 11:03:00,,0825.4,5.00,0.00,27.1,25.2,00.0,35.6,28.5,10.0,0000.0,0003.58,0008.52,0001.98
2023-05-06 11:04:00,,0825.4,5.00,0.00,27.1,25.2,00.0,35.5,28.5,10.1,0000.0,0003.52,0008.35,0001.97
2023-05-06 11:05:00,,0825.4,5.01,0.00,27.1,25.2,00.0,35.5,28.5,10.3,0000.0,0003.51,0008.49,0001.98
2023-05-06 11:06:00,,0825.4,5.00,0.00,27.1,25.2,00.0,35.5,28.5,10.5,0000.0,0003.53,0008.66,0001.99
2023-05-06 11:07:00,,0825.4,5.00,0.00,27.1,25.2,00.0,35.5,28.5,10.6,0000.0,0003.53,0008.44,0001.98
2023-05-06 11:08:00,,0825.5,5.00,0.00,27.1,25.2,00.0,35.5,28.5,10.4,0000.0,0003.54,0008.79,0001.98
2023-05-06 11:09:00,,0825.6,5.00,0.00,27.1,25.2,00.0,35.5,28.5,10.4,0000.0,0003.54,0008.78,0001.99
2023-05-06 11:10:00,,0825.6,5.00,0.00,27.1,25.3,00.0,35.5,28.5,10.4,0000.0,0003.51,0008.76,0001.98
2023-05-06 11:11:00,,0825.6,5.01,0.00,27.1,25.3,00.0,35.5,28.6,10.3,0000.0,0003.46,0008.70,0001.96
2023-05-06 11:12:00,,0825.6,5.00,0.00,27.1,25.3,00.0,35.5,28.6,10.4,0000.0,0003.37,0008.64,0001.94
2023-05-06 11:13:00,,0825.6,4.99,0.00,27.1,25.4,00.0,35.5,28.6,10.7,0000.0,0003.35,0008.42,0001.92
2023-05-06 11:14:00,,0825.6,5.00,0.00,27.1,25.4,00.0,35.5,28.6,10.8,0000.0,0003.34,0008.35,0001.93
2023-05-06 11:15:00,,0825.6,4.99,0.00,27.1,25.5,00.0,35.5,28.6,10.7,0000.0,0003.32,0008.25,0001.92
2023-05-06 11:16:00,,0825.6,5.01,0.00,27.1,25.5,00.0,35.5,28.6,10.7,0000.0,0003.32,0008.07,0001.92
2023-05-06 11:17:00,,0825.6,5.00,0.00,27.1,25.5,00.0,35.5,28.6,10.8,0000.0,0003.33,0008.51,0001.94
2023-05-06 11:18:00,,0825.6,5.01,0.00,27.1,25.4,00.0,35.5,28.6,10.8,0000.0,0003.36,0008.49,0001.95
2023-05-06 11:19:00,,0825.6,5.01,0.00,27.1,25.5,00.0,35.5,28.6,10.8,0000.0,0003.38,0008.09,0001.96
2023-05-06 11:20:00,,0825.6,4.99,0.00,27.1,25.5,00.0,35.5,28.6,10.9,0000.0,0003.41,0008.07,0001.97
2023-05-06 11:21:00,,0825.6,5.00,0.00,27.1,25.5,00.0,35.5,28.6,11.2,0000.0,0003.43,0008.09,0001.99
2023-05-06 11:22:00,,0825.6,4.99,0.00,27.1,25.5,00.0,35.5,28.6,11.9,0000.0,0003.48,0008.09,0002.02
2023-05-06 11:23:00,,0825.6,5.00,0.00,27.1,25.5,00.0,35.5,28.6,11.7,0000.0,0003.56,0008.21,0002.06
2023-05-06 11:24:00,,0825.6,5.01,0.00,27.1,25.5,00.0,35.5,28.6,11.8,0000.0,0003.59,0008.41,0002.09
2023-05-06 11:25:00,,0825.6,5.00,0.00,27.1,25.5,00.0,35.5,28.6,11.8,0000.0,0003.68,0009.64,0002.13
2023-05-06 11:26:00,,0825.7,5.00,0.00,27.1,25.5,00.0,35.5,28.6,12.1,0000.0,0003.76,0010.11,0002.17
2023-05-06 11:27:00,,0825.7,5.00,0.00,27.1,25.6,00.0,35.5,28.6,12.2,0000.0,0003.78,0010.24,0002.20
2023-05-06 11:28:00,,0825.7,5.01,0.00,27.1,25.6,00.0,35.5,28.6,12.2,0000.0,0003.84,0010.17,0002.22
2023-05-06 11:29:00,,0825.7,5.00,0.00,27.1,25.6,00.0,35.5,28.7,12.3,0000.0,0003.90,0010.79,0002.24
2023-05-06 11:30:00,,0825.8,4.98,0.00,27.1,25.6,00.0,35.5,28.7,12.3,0000.0,0003.92,0010.92,0002.26
2023-05-06 11:31:00,,0825.7,5.00,0.00,27.1,25.6,00.0,35.5,28.7,12.4,0000.0,0003.89,0010.92,0002.27
2023-05-06 11:32:00,,0825.7,5.00,0.00,27.1,25.6,00.0,35.5,28.7,12.4,0000.0,0003.92,0010.97,0002.31
2023-05-06 11:33:00,,0825.8,5.02,0.00,27.1,25.6,00.0,35.5,28.7,12.3,0000.0,0003.94,0011.04,0002.29
2023-05-06 11:34:00,,0825.7,5.01,0.00,27.1,25.6,00.0,35.5,28.7,12.3,0000.0,0003.88,0010.90,0002.28
2023-05-06 11:35:00,,0825.7,5.00,0.00,27.1,25.6,00.0,35.5,28.7,12.3,0000.0,0003.90,0010.88,0002.28
2023-05-06 11:36:00,,0825.7,5.00,0.00,27.1,25.6,00.0,35.5,28.7,12.5,0000.0,0003.87,0010.11,0002.27
2023-05-06 11:37:00,,0825.8,4.98,0.00,27.1,25.6,00.0,35.5,28.7,12.8,0000.0,0003.82,0009.34,0002.25
2023-05-06 11:38:00,,0825.8,5.01,0.00,27.1,25.5,00.0,35.5,28.6,13.3,0000.0,0003.80,0009.16,0002.26
2023-05-06 11:39:00,,0825.8,5.01,0.00,27.1,25.5,00.0,35.5,28.6,13.6,0000.0,0003.82,0009.01,0002.28
2023-05-06 11:40:00,,0825.8,5.00,0.00,27.1,25.5,00.0,35.5,28.6,13.1,0000.0,0003.85,0008.96,0002.30
2023-05-06 11:41:00,,0825.9,5.00,0.00,27.2,25.5,00.0,35.5,28.6,13.3,0000.0,0003.85,0008.78,0002.31
2023-05-06 11:42:00,,0825.9,4.99,0.00,27.2,25.5,00.0,35.5,28.6,13.4,0000.0,0003.88,0008.90,0002.34
2023-05-06 11:43:00,,0825.9,5.00,0.00,27.1,25.6,00.0,35.5,28.7,12.6,0000.0,0003.87,0009.89,0002.34
2023-05-06 11:44:00,,0825.9,5.00,0.00,27.1,25.5,00.0,35.5,28.7,12.6,0000.0,0003.88,0010.03,0002.34
2023-05-06 11:45:00,,0825.9,5.00,0.00,27.1,25.5,00.0,35.5,28.7,12.5,0000.0,0004.00,0010.34,0002.37
2023-05-06 11:46:00,,0825.9,4.99,0.00,27.1,25.5,00.0,35.5,28.7,12.5,0000.0,0004.06,0010.42,0002.38
2023-05-06 11:47:00,,0825.9,5.01,0.00,27.1,25.5,00.0,35.5,28.6,12.5,0000.0,0004.05,0010.47,0002.40
2023-05-06 11:48:00,,0825.9,5.00,0.00,27.1,25.5,00.0,35.5,28.5,12.3,0000.0,0004.09,0011.92,0002.39
2023-05-06 11:49:00,,0825.9,5.01,0.00,27.1,25.5,00.0,35.5,28.5,12.2,0000.0,0004.11,0012.25,0002.36
2023-05-06 11:50:00,,0825.9,4.99,0.00,27.1,25.5,00.0,35.5,28.5,12.3,0000.0,0004.06,0012.17,0002.32
2023-05-06 11:51:00,,0825.9,4.99,0.00,27.1,25.4,00.0,35.5,28.5,12.2,0000.0,0004.01,0011.73,0002.30
2023-05-06 11:52:00,,0825.9,5.02,0.00,27.1,25.4,00.0,35.5,28.5,12.2,0000.0,0003.98,0011.86,0002.29
2023-05-06 11:53:00,,0825.8,5.01,0.00,27.1,25.4,00.0,35.5,28.5,12.2,0000.0,0003.95,0011.73,0002.26
2023-05-06 11:54:00,,0825.9,4.99,0.00,27.1,25.4,00.0,35.5,28.5,12.2,0000.0,0003.95,0010.73,0002.26
2023-05-06 11:55:00,,0825.9,4.99,0.00,27.1,25.4,00.0,35.5,28.5,12.4,0000.0,0003.94,0010.66,0002.27
2023-05-06 11:56:00,,0825.9,5.01,0.00,27.1,25.4,00.0,35.4,28.5,12.5,0000.0,0003.90,0011.24,0002.26
2023-05-06 11:57:00,,0825.9,5.01,0.00,27.1,25.3,00.0,35.4,28.5,12.6,0000.0,0003.93,0011.31,0002.27
2023-05-06 11:58:00,,0825.9,5.00,0.00,27.1,25.4,00.0,35.4,28.5,12.7,0000.0,0003.94,0011.26,0002.28
2023-05-06 11:59:00,,0825.9,4.99,0.00,27.1,25.4,00.0,35.4,28.5,13.1,0000.0,0003.97,0009.92,0002.30
